Tracking 17842 objects as of 30-August-2016
HD Live streaming from Space Station
objects crossing your sky now

MOZ.5/SAFIR/RUBIN 5/SL-8

Track MOZ.5/SAFIR/RUBIN 5/SL-8 now!
10-day predictions
MOZ.5/SAFIR/RUBIN 5/SL-8 is classified as:


NORAD ID: 28898
Int'l Code: 2005-043G
Perigee: 685.5 km
Apogee: 714.4 km
Inclination: 97.9 °
Period: 98.6 minutes
Semi major axis: 7070 km
RCS: 6.834 m2 (large)
Launch date: October 27, 2005
Source: Germany (GER)
Launch site: PLESETSK MISSILE AND SPACE COMPLEX (PKMTR)
Uplink (MHz):
Downlink (MHz):
Beacon (MHz):
Mode:
Call sign:
Status:

Your satellite tracking list
Your tracking list is empty





NASA's NSSDC Master Catalog

Two Line Element Set (TLE):
1 28898U 05043G   16242.53805884  .00000092  00000-0  28155-4 0  9999
2 28898  97.8886  39.6775 0020442  28.6005 331.6313 14.60120902577276
Source of the keplerian elements: AFSPC

N2YO: 487